SP9INZ-13 Weather Reports


Display with metric or nautical units.
time (UTC)temp
F
wind
direction
speed
MPH
gust
MPH
rain 1hr
in
rain 24hr
in
rain mn
in
humidity
%
barometer
mb
20260505030622 60 0.0 0.0 0.00 0.00 0.00 46 1016.6
20260505025023 60 0.0 0.0 0.00 0.00 0.00 46 1016.7
20260505023425 59 0.0 0.0 0.00 0.00 0.00 48 1017.0
20260505021827 59 0.0 0.0 0.00 0.00 0.00 48 1017.0
20260505020230 62 0.0 0.0 0.00 0.00 0.00 44 1016.9
20260505014631 64 0.0 0.0 0.00 0.00 0.00 38 1016.7
20260505013033 65 0.0 0.0 0.00 0.00 0.00 37 1016.6
20260505011435 66 0.0 0.0 0.00 0.00 0.00 36 1016.5
20260505005837 66 0.0 0.0 0.00 0.00 0.00 36 1016.6
20260505004240 65 0.0 0.0 0.00 0.00 0.00 36 1016.8
20260505002642 66 0.0 0.0 0.00 0.00 0.00 36 1016.9
20260505001043 65 0.0 0.0 0.00 0.00 0.00 37 1017.1
20260504235445 64 0.0 0.0 0.00 0.00 0.00 38 1017.5
20260504233847 66 0.0 0.0 0.00 0.00 0.00 37 1017.2
20260504232249 67 0.0 0.0 0.00 0.00 0.00 37 1017.0
20260504230651 67 0.0 0.0 0.00 0.00 0.00 36 1017.2
20260504225053 66 0.0 0.0 0.00 0.00 0.00 36 1017.5
20260504223455 67 0.0 0.0 0.00 0.00 0.00 36 1017.3
20260504221857 67 0.0 0.0 0.00 0.00 0.00 36 1017.4
20260504220259 68 0.0 0.0 0.00 0.00 0.00 36 1017.3
20260504214701 68 0.0 0.0 0.00 0.00 0.00 36 1017.2
20260504213103 68 0.0 0.0 0.00 0.00 0.00 35 1017.2
20260504211505 69 0.0 0.0 0.00 0.00 0.00 34 1017.1
20260504205907 70 0.0 0.0 0.00 0.00 0.00 34 1016.9
20260504204309 70 0.0 0.0 0.00 0.00 0.00 35 1016.7
20260504202711 70 0.0 0.0 0.00 0.00 0.00 36 1016.5
20260504201113 71 0.0 0.0 0.00 0.00 0.00 38 1015.9
20260504195516 72 0.0 0.0 0.00 0.00 0.00 38 1015.7
20260504193917 72 0.0 0.0 0.00 0.00 0.00 38 1015.6
20260504192318 72 0.0 0.0 0.00 0.00 0.00 38 1015.5
20260504190721 73 0.0 0.0 0.00 0.00 0.00 38 1015.1
20260504185123 74 0.0 0.0 0.00 0.00 0.00 38 1014.9
20260504183525 74 0.0 0.0 0.00 0.00 0.00 37 1014.8
20260504181927 74 0.0 0.0 0.00 0.00 0.00 36 1014.6
20260504180328 75 0.0 0.0 0.00 0.00 0.00 36 1014.4
20260504174731 75 0.0 0.0 0.00 0.00 0.00 37 1014.3
20260504173132 76 0.0 0.0 0.00 0.00 0.00 35 1014.1
20260504171535 79 0.0 0.0 0.00 0.00 0.00 32 1013.6
20260504150751 83 0.0 0.0 0.00 0.00 0.00 27 1013.3
20260504140359 79 0.0 0.0 0.00 0.00 0.00 29 1015.0
20260504100429 74 0.0 0.0 0.00 0.00 0.00 31 1018.2
20260504081243 70 0.0 0.0 0.00 0.00 0.00 35 1019.1
20260504050107 59 0.0 0.0 0.00 0.00 0.00 46 1021.2
20260504044509 58 0.0 0.0 0.00 0.00 0.00 46 1021.4
20260504042911 58 0.0 0.0 0.00 0.00 0.00 48 1021.2
20260504041313 58 0.0 0.0 0.00 0.00 0.00 49 1021.2
20260504035715 58 0.0 0.0 0.00 0.00 0.00 48 1021.2
20260504034117 59 0.0 0.0 0.00 0.00 0.00 47 1020.8
20260504032519 58 0.0 0.0 0.00 0.00 0.00 47 1021.0